FIN9XG EFRO-EFHK

Flight info

Callsign FIN9XG
Flight time 1h 8m
Altitude 37000
Route RENVI Y86 LUSEP
Aircraft A321/M-SDE3FGHIRWY/LB1

Departure

Time 2026-04-25 15:28
Airport Rovaniemi Airport (EFRO)

Arrival

Time 2026-04-25 16:37
Airport Helsinki Vantaa Airport (EFHK)
Time Latitude Longitude Altitude Speed Heading
2026-04-25 15:16 66.55840 25.82606 660 ft 0 kts 137°
2026-04-25 15:22 66.55843 25.82597 660 ft 2 kts 137°
2026-04-25 15:23 66.55853 25.82575 660 ft 2 kts 137°
2026-04-25 15:23 66.55862 25.82553 660 ft 2 kts 137°
2026-04-25 15:23 66.55872 25.82531 660 ft 2 kts 137°
2026-04-25 15:23 66.55881 25.82508 660 ft 2 kts 137°
2026-04-25 15:24 66.55892 25.82484 660 ft 3 kts 152°
2026-04-25 15:24 66.55908 25.82477 660 ft 2 kts 189°
2026-04-25 15:24 66.55920 25.82488 660 ft 0 kts 216°
2026-04-25 15:24 66.55921 25.82489 660 ft 1 kts 219°
2026-04-25 15:25 66.55926 25.82501 660 ft 0 kts 221°
2026-04-25 15:25 66.55924 25.82496 660 ft 3 kts 220°
2026-04-25 15:26 66.55862 25.82387 660 ft 16 kts 217°
2026-04-25 15:26 66.55769 25.82207 660 ft 20 kts 217°
2026-04-25 15:26 66.55671 25.82019 660 ft 19 kts 217°
2026-04-25 15:26 66.55576 25.81842 660 ft 18 kts 217°
2026-04-25 15:27 66.55470 25.81649 660 ft 26 kts 217°
2026-04-25 15:27 66.55345 25.81379 660 ft 26 kts 242°
2026-04-25 15:27 66.55699 25.81536 660 ft 83 kts 37°
2026-04-25 15:28 66.56289 25.82667 660 ft 140 kts 36°
2026-04-25 15:28 66.57068 25.84146 970 ft 159 kts 33°
2026-04-25 15:28 66.57836 25.85588 1602 ft 154 kts 33°
2026-04-25 15:28 66.58381 25.87557 2163 ft 164 kts 77°
2026-04-25 15:29 66.58120 25.90144 2687 ft 178 kts 126°
2026-04-25 15:29 66.57151 25.91605 3069 ft 191 kts 171°
2026-04-25 15:29 66.55926 25.91467 3468 ft 201 kts 187°
2026-04-25 15:29 66.54664 25.91092 3812 ft 215 kts 186°
2026-04-25 15:30 66.53291 25.90750 4159 ft 229 kts 185°
2026-04-25 15:30 66.51826 25.90447 4487 ft 245 kts 185°
2026-04-25 15:30 66.50289 25.90176 4782 ft 264 kts 184°
2026-04-25 15:30 66.48634 25.89914 5192 ft 279 kts 184°
2026-04-25 15:31 66.46905 25.89658 5791 ft 285 kts 184°
2026-04-25 15:31 66.45165 25.89408 6536 ft 287 kts 184°
2026-04-25 15:31 66.43394 25.89158 7272 ft 289 kts 184°
2026-04-25 15:31 66.41663 25.88917 7967 ft 291 kts 184°
2026-04-25 15:32 66.39876 25.88668 8669 ft 294 kts 184°
2026-04-25 15:32 66.38075 25.88418 9355 ft 296 kts 184°
2026-04-25 15:32 66.36292 25.88172 9967 ft 300 kts 184°
2026-04-25 15:33 66.32495 25.87645 10671 ft 326 kts 184°
2026-04-25 15:33 66.30442 25.87362 11256 ft 331 kts 184°
2026-04-25 15:33 66.28342 25.87075 11967 ft 331 kts 184°
2026-04-25 15:33 66.26271 25.86795 12615 ft 333 kts 184°
2026-04-25 15:34 66.24191 25.86518 13216 ft 336 kts 184°
2026-04-25 15:34 66.22147 25.86246 13806 ft 338 kts 184°
2026-04-25 15:34 66.20091 25.85973 14385 ft 340 kts 184°
2026-04-25 15:34 66.19285 25.85865 14606 ft 341 kts 184°
2026-04-25 15:35 66.13669 25.85107 16063 ft 349 kts 184°
2026-04-25 15:35 66.11455 25.84807 16615 ft 351 kts 184°
2026-04-25 15:35 66.09312 25.84517 17118 ft 354 kts 184°
2026-04-25 15:36 66.05015 25.83936 18132 ft 359 kts 184°
2026-04-25 15:36 66.02820 25.83639 18615 ft 361 kts 184°
2026-04-25 15:36 66.00632 25.83345 19086 ft 364 kts 184°
2026-04-25 15:37 65.98401 25.83046 19544 ft 367 kts 184°
2026-04-25 15:37 65.96169 25.82746 20004 ft 369 kts 184°
2026-04-25 15:37 65.93877 25.82440 20459 ft 372 kts 184°
2026-04-25 15:37 65.91579 25.82132 20899 ft 374 kts 184°
2026-04-25 15:38 65.89277 25.81828 21328 ft 377 kts 184°
2026-04-25 15:38 65.86948 25.81520 21759 ft 379 kts 184°
2026-04-25 15:38 65.84587 25.81206 22187 ft 381 kts 184°
2026-04-25 15:38 65.82181 25.80888 22599 ft 384 kts 184°
2026-04-25 15:39 65.79669 25.80556 23006 ft 387 kts 184°
2026-04-25 15:39 65.77301 25.80244 23386 ft 389 kts 184°
2026-04-25 15:39 65.74875 25.79928 23767 ft 391 kts 184°
2026-04-25 15:39 65.72452 25.79608 24148 ft 393 kts 184°
2026-04-25 15:40 65.69993 25.79286 24517 ft 395 kts 184°
2026-04-25 15:40 65.69110 25.79170 24648 ft 396 kts 184°
2026-04-25 15:40 65.64922 25.78624 25229 ft 399 kts 185°
2026-04-25 15:40 65.62399 25.78294 25546 ft 401 kts 185°
2026-04-25 15:41 65.59969 25.77981 25839 ft 402 kts 185°
2026-04-25 15:41 65.57498 25.77657 26130 ft 404 kts 185°
2026-04-25 15:41 65.55012 25.77334 26392 ft 406 kts 185°
2026-04-25 15:41 65.52551 25.77017 26663 ft 407 kts 185°
2026-04-25 15:42 65.50059 25.76691 26928 ft 409 kts 185°
2026-04-25 15:42 65.47522 25.76361 27153 ft 411 kts 185°
2026-04-25 15:42 65.45026 25.76040 27390 ft 413 kts 185°
2026-04-25 15:42 65.42445 25.75709 27647 ft 414 kts 185°
2026-04-25 15:43 65.39807 25.75370 27912 ft 415 kts 185°
2026-04-25 15:43 65.37292 25.75050 28147 ft 417 kts 185°
2026-04-25 15:43 65.34669 25.74712 28372 ft 419 kts 185°
2026-04-25 15:43 65.32127 25.74386 28593 ft 420 kts 185°
2026-04-25 15:44 65.29565 25.74059 28808 ft 422 kts 185°
2026-04-25 15:44 65.26994 25.73731 29013 ft 423 kts 185°
2026-04-25 15:44 65.24418 25.73405 29207 ft 425 kts 185°
2026-04-25 15:44 65.21823 25.73076 29407 ft 426 kts 185°
2026-04-25 15:45 65.19243 25.72750 29604 ft 428 kts 185°
2026-04-25 15:45 65.16614 25.72417 29799 ft 429 kts 185°
2026-04-25 15:45 65.14028 25.72091 29981 ft 431 kts 185°
2026-04-25 15:45 65.13143 25.71980 30041 ft 432 kts 185°
2026-04-25 15:46 65.08762 25.71429 30332 ft 434 kts 185°
2026-04-25 15:46 65.06125 25.71100 30464 ft 436 kts 185°
2026-04-25 15:46 65.03436 25.70764 30595 ft 437 kts 185°
2026-04-25 15:46 65.00804 25.70435 30714 ft 439 kts 185°
2026-04-25 15:47 64.98092 25.70098 30858 ft 441 kts 185°
2026-04-25 15:47 64.95428 25.69768 30995 ft 442 kts 185°
2026-04-25 15:47 64.92768 25.69436 31130 ft 444 kts 185°
2026-04-25 15:47 64.90064 25.69102 31264 ft 446 kts 185°
2026-04-25 15:48 64.87379 25.68773 31402 ft 447 kts 185°
2026-04-25 15:48 64.84606 25.68434 31570 ft 447 kts 185°
2026-04-25 15:48 64.81905 25.68104 31739 ft 447 kts 185°
2026-04-25 15:48 64.79231 25.67779 31899 ft 447 kts 185°
2026-04-25 15:49 64.76524 25.67448 32049 ft 448 kts 185°
2026-04-25 15:49 64.73839 25.67120 32192 ft 448 kts 185°
2026-04-25 15:49 64.71115 25.66788 32337 ft 449 kts 185°
2026-04-25 15:49 64.68426 25.66462 32478 ft 449 kts 185°
2026-04-25 15:50 64.62994 25.65802 32769 ft 450 kts 185°
2026-04-25 15:50 64.60301 25.65476 32939 ft 450 kts 185°
2026-04-25 15:50 64.57546 25.65142 33134 ft 450 kts 185°
2026-04-25 15:51 64.54810 25.64812 33335 ft 450 kts 185°
2026-04-25 15:51 64.53893 25.64702 33406 ft 450 kts 185°
2026-04-25 15:51 64.49377 25.64160 33746 ft 449 kts 185°
2026-04-25 15:51 64.46652 25.63835 33944 ft 449 kts 185°
2026-04-25 15:52 64.43943 25.63510 34129 ft 448 kts 185°
2026-04-25 15:52 64.41228 25.63185 34308 ft 448 kts 185°
2026-04-25 15:52 64.38520 25.62862 34479 ft 448 kts 185°
2026-04-25 15:52 64.35773 25.62537 34644 ft 447 kts 185°
2026-04-25 15:53 64.33067 25.62216 34788 ft 448 kts 185°
2026-04-25 15:53 64.30327 25.61890 34912 ft 448 kts 185°
2026-04-25 15:53 64.27616 25.61570 35013 ft 449 kts 185°
2026-04-25 15:53 64.24877 25.61247 35110 ft 450 kts 185°
2026-04-25 15:54 64.19407 25.60602 35309 ft 451 kts 185°
2026-04-25 15:54 64.16689 25.60286 35726 ft 440 kts 185°
2026-04-25 15:54 64.14030 25.59978 36118 ft 432 kts 185°
2026-04-25 15:55 64.11376 25.59669 36370 ft 427 kts 185°
2026-04-25 15:55 64.08781 25.59365 36456 ft 427 kts 185°
2026-04-25 15:55 64.03544 25.58751 36458 ft 431 kts 185°
2026-04-25 15:56 63.98302 25.58141 36459 ft 436 kts 185°
2026-04-25 15:56 63.92974 25.57525 36464 ft 440 kts 185°
2026-04-25 15:57 63.87512 25.56899 36463 ft 445 kts 185°
2026-04-25 15:57 63.81902 25.56262 36459 ft 449 kts 185°
2026-04-25 15:58 63.75891 25.55581 36451 ft 454 kts 185°
2026-04-25 15:58 63.69772 25.54888 36449 ft 458 kts 185°
2026-04-25 15:59 63.63987 25.54235 36445 ft 462 kts 185°
2026-04-25 15:59 63.57910 25.53551 36438 ft 466 kts 185°
2026-04-25 16:00 63.53759 25.53086 36437 ft 468 kts 185°
2026-04-25 16:00 63.45251 25.52136 36432 ft 472 kts 185°
2026-04-25 16:01 63.38787 25.51419 36431 ft 474 kts 185°
2026-04-25 16:01 63.32261 25.50698 36426 ft 476 kts 185°
2026-04-25 16:02 63.26170 25.50027 36416 ft 477 kts 185°
2026-04-25 16:02 63.19884 25.49339 36413 ft 479 kts 185°
2026-04-25 16:03 63.13842 25.48678 36412 ft 479 kts 185°
2026-04-25 16:03 63.07549 25.47995 36416 ft 480 kts 185°
2026-04-25 16:04 63.01203 25.47308 36408 ft 479 kts 185°
2026-04-25 16:04 62.94798 25.46618 36411 ft 479 kts 185°
2026-04-25 16:05 62.88326 25.45923 36404 ft 479 kts 185°
2026-04-25 16:06 62.78480 25.44880 36395 ft 479 kts 185°
2026-04-25 16:06 62.71992 25.44195 36390 ft 479 kts 185°
2026-04-25 16:07 62.65573 25.43517 36371 ft 479 kts 185°
2026-04-25 16:07 62.59000 25.42826 36359 ft 479 kts 185°
2026-04-25 16:08 62.52490 25.42143 36346 ft 479 kts 185°
2026-04-25 16:08 62.46030 25.41470 36347 ft 479 kts 185°
2026-04-25 16:09 62.39472 25.40788 36342 ft 479 kts 185°
2026-04-25 16:09 62.32940 25.40115 36226 ft 473 kts 185°
2026-04-25 16:09 62.29710 25.39784 35844 ft 469 kts 185°
2026-04-25 16:10 62.26501 25.39455 35355 ft 466 kts 186°
2026-04-25 16:10 62.23367 25.39135 34911 ft 462 kts 186°
2026-04-25 16:10 62.20267 25.38820 34384 ft 457 kts 186°
2026-04-25 16:10 62.17160 25.38501 33935 ft 453 kts 186°
2026-04-25 16:11 62.14047 25.38184 33517 ft 448 kts 186°
2026-04-25 16:11 62.10978 25.37872 33062 ft 442 kts 186°
2026-04-25 16:11 62.07989 25.37570 32514 ft 437 kts 186°
2026-04-25 16:11 62.04963 25.37262 31657 ft 439 kts 187°
2026-04-25 16:12 62.01959 25.36955 30850 ft 438 kts 187°
2026-04-25 16:12 61.99000 25.36657 30240 ft 428 kts 187°
2026-04-25 16:12 61.96063 25.36361 29705 ft 421 kts 187°
2026-04-25 16:12 61.95099 25.36263 29544 ft 420 kts 187°
2026-04-25 16:13 61.90314 25.35777 28753 ft 414 kts 187°
2026-04-25 16:13 61.87493 25.35494 28274 ft 411 kts 187°
2026-04-25 16:13 61.84701 25.35216 27795 ft 408 kts 187°
2026-04-25 16:13 61.81876 25.34934 27304 ft 406 kts 186°
2026-04-25 16:14 61.79078 25.34645 26807 ft 404 kts 186°
2026-04-25 16:14 61.76300 25.34355 26255 ft 401 kts 186°
2026-04-25 16:14 61.73570 25.34074 25691 ft 399 kts 186°
2026-04-25 16:14 61.70850 25.33797 25127 ft 396 kts 186°
2026-04-25 16:15 61.68152 25.33526 24556 ft 394 kts 186°
2026-04-25 16:15 61.65463 25.33257 23952 ft 391 kts 186°
2026-04-25 16:15 61.62743 25.32987 23337 ft 389 kts 186°
2026-04-25 16:15 61.60113 25.32726 22734 ft 386 kts 186°
2026-04-25 16:16 61.57500 25.32469 22135 ft 384 kts 186°
2026-04-25 16:16 61.54887 25.32212 21517 ft 382 kts 186°
2026-04-25 16:16 61.52403 25.31968 20943 ft 380 kts 186°
2026-04-25 16:16 61.49865 25.31719 20357 ft 378 kts 186°
2026-04-25 16:17 61.47399 25.31477 19777 ft 377 kts 186°
2026-04-25 16:17 61.44935 25.31237 19190 ft 375 kts 186°
2026-04-25 16:17 61.42592 25.31009 18633 ft 374 kts 186°
2026-04-25 16:17 61.40286 25.30784 18085 ft 373 kts 186°
2026-04-25 16:18 61.38042 25.30564 17555 ft 372 kts 186°
2026-04-25 16:18 61.37289 25.30491 17378 ft 372 kts 186°
2026-04-25 16:18 61.33678 25.30139 16517 ft 370 kts 185°
2026-04-25 16:18 61.31477 25.29927 15988 ft 369 kts 185°
2026-04-25 16:19 61.29274 25.29714 15466 ft 368 kts 185°
2026-04-25 16:19 61.27043 25.29499 14932 ft 368 kts 185°
2026-04-25 16:19 61.24859 25.29289 14408 ft 367 kts 185°
2026-04-25 16:20 61.20412 25.28861 13339 ft 365 kts 185°
2026-04-25 16:20 61.18181 25.28649 12813 ft 365 kts 185°
2026-04-25 16:20 61.13540 25.28206 11698 ft 363 kts 185°
2026-04-25 16:21 61.11332 25.27992 11182 ft 362 kts 185°
2026-04-25 16:21 61.09117 25.27781 10645 ft 362 kts 185°
2026-04-25 16:21 61.06915 25.27571 10115 ft 361 kts 184°
2026-04-25 16:21 61.04709 25.27362 9602 ft 360 kts 184°
2026-04-25 16:22 61.02447 25.27151 9328 ft 351 kts 185°
2026-04-25 16:22 61.00362 25.26958 9301 ft 336 kts 185°
2026-04-25 16:22 60.98306 25.26769 9294 ft 321 kts 185°
2026-04-25 16:22 60.96373 25.26588 9300 ft 307 kts 185°
2026-04-25 16:23 60.94455 25.26532 9290 ft 300 kts 181°
2026-04-25 16:23 60.92558 25.26641 9295 ft 297 kts 180°
2026-04-25 16:23 60.90761 25.26759 9291 ft 287 kts 181°
2026-04-25 16:23 60.88987 25.26874 9297 ft 286 kts 181°
2026-04-25 16:24 60.87238 25.26988 9299 ft 286 kts 181°
2026-04-25 16:24 60.85498 25.27101 9232 ft 283 kts 181°
2026-04-25 16:24 60.83746 25.27215 8932 ft 282 kts 181°
2026-04-25 16:24 60.82012 25.27326 8578 ft 283 kts 181°
2026-04-25 16:25 60.80845 25.27400 8377 ft 282 kts 181°
2026-04-25 16:25 60.79703 25.27472 8177 ft 281 kts 181°
2026-04-25 16:25 60.76829 25.27657 7686 ft 279 kts 181°
2026-04-25 16:25 60.75123 25.27768 7391 ft 278 kts 181°
2026-04-25 16:26 60.73398 25.27878 7096 ft 277 kts 181°
2026-04-25 16:26 60.71619 25.27993 6785 ft 275 kts 181°
2026-04-25 16:26 60.69677 25.27757 6406 ft 270 kts 199°
2026-04-25 16:26 60.68085 25.25881 6070 ft 261 kts 226°
2026-04-25 16:27 60.66997 25.23435 5861 ft 253 kts 231°
2026-04-25 16:27 60.65954 25.21011 5617 ft 243 kts 231°
2026-04-25 16:27 60.64975 25.18763 5445 ft 235 kts 231°
2026-04-25 16:27 60.63970 25.16479 5279 ft 228 kts 230°
2026-04-25 16:28 60.62907 25.14701 5030 ft 231 kts 207°
2026-04-25 16:28 60.61534 25.14144 4776 ft 237 kts 179°
2026-04-25 16:28 60.60149 25.14898 4567 ft 239 kts 160°
2026-04-25 16:28 60.58807 25.16114 4304 ft 241 kts 158°
2026-04-25 16:29 60.57464 25.17362 4042 ft 241 kts 158°
2026-04-25 16:29 60.56095 25.18614 3806 ft 240 kts 159°
2026-04-25 16:29 60.54720 25.19844 3556 ft 239 kts 160°
2026-04-25 16:29 60.53348 25.21047 3320 ft 239 kts 160°
2026-04-25 16:30 60.51964 25.22252 3086 ft 238 kts 160°
2026-04-25 16:30 60.50624 25.23412 3015 ft 236 kts 160°
2026-04-25 16:30 60.49260 25.24590 3013 ft 237 kts 160°
2026-04-25 16:30 60.47908 25.25747 3000 ft 232 kts 163°
2026-04-25 16:31 60.46595 25.26232 3002 ft 210 kts 191°
2026-04-25 16:31 60.45462 25.25284 3064 ft 197 kts 218°
2026-04-25 16:31 60.44581 25.23655 3035 ft 192 kts 231°
2026-04-25 16:31 60.43837 25.21863 3024 ft 190 kts 234°
2026-04-25 16:32 60.43131 25.20147 2983 ft 179 kts 233°
2026-04-25 16:32 60.42425 25.18505 2935 ft 177 kts 232°
2026-04-25 16:32 60.41715 25.16907 2736 ft 176 kts 232°
2026-04-25 16:32 60.41002 25.15332 2522 ft 174 kts 231°
2026-04-25 16:33 60.40289 25.13771 2316 ft 173 kts 231°
2026-04-25 16:33 60.39603 25.12272 2109 ft 165 kts 231°
2026-04-25 16:33 60.38963 25.10876 1954 ft 153 kts 231°
2026-04-25 16:33 60.38350 25.09555 1712 ft 144 kts 231°
2026-04-25 16:34 60.37783 25.08354 1512 ft 136 kts 230°
2026-04-25 16:34 60.37247 25.07162 1328 ft 133 kts 232°
2026-04-25 16:34 60.36736 25.05995 1217 ft 130 kts 231°
2026-04-25 16:34 60.36210 25.04834 1088 ft 132 kts 230°
2026-04-25 16:35 60.35689 25.03690 973 ft 132 kts 229°
2026-04-25 16:35 60.35167 25.02556 808 ft 130 kts 228°
2026-04-25 16:35 60.34638 25.01380 679 ft 133 kts 229°
2026-04-25 16:35 60.34110 25.00205 526 ft 130 kts 228°
2026-04-25 16:36 60.33584 24.99039 370 ft 129 kts 227°
2026-04-25 16:36 60.33412 24.98660 320 ft 129 kts 227°
2026-04-25 16:36 60.32564 24.96803 189 ft 102 kts 227°
2026-04-25 16:36 60.32241 24.96088 189 ft 58 kts 227°
2026-04-25 16:37 60.32059 24.95744 189 ft 31 kts 211°
2026-04-25 16:37 60.31917 24.95632 189 ft 20 kts 197°
2026-04-25 16:37 60.31820 24.95641 189 ft 16 kts 116°
2026-04-25 16:37 60.31862 24.95816 189 ft 21 kts 47°
2026-04-25 16:38 60.31960 24.96028 189 ft 24 kts 47°
2026-04-25 16:38 60.32059 24.96243 189 ft 23 kts 47°
2026-04-25 16:38 60.32151 24.96448 189 ft 22 kts 48°
2026-04-25 16:38 60.32240 24.96649 189 ft 19 kts 57°
2026-04-25 16:39 60.32182 24.96812 189 ft 19 kts 153°
2026-04-25 16:39 60.32073 24.96932 189 ft 21 kts 152°
2026-04-25 16:39 60.31972 24.97046 189 ft 14 kts 155°
2026-04-25 16:39 60.31914 24.97006 189 ft 8 kts 239°
2026-04-25 16:40 60.31905 24.96974 189 ft 1 kts 243°
2026-04-25 16:40 60.31904 24.96970 189 ft 0 kts 243°